Tracking 17267 objects as of 31-August-2015
HD Live streaming from Space Station

GLOBALSTAR M086

Track GLOBALSTAR M086 now!
10-day predictions
GLOBALSTAR M086 is classified as:


NORAD ID: 38045
Int'l Code: 2011-080F
Perigee: 1,420.2 km
Apogee: 1,421.2 km
Inclination: 52.0 °
Period: 114.1 minutes
Semi major axis: 7791 km
RCS: 4.511 m2 (large)
Launch date: December 28, 2011
Source: Globalstar (GLOB)
Your satellite tracking list
Your tracking list is empty





NASA's NSSDC Master Catalog

Two Line Element Set (TLE):
1 38045U 11080F   15242.80272223 -.00000088  00000-0  86514-4 0  9995
2 38045 051.9890 096.6925 0000632 054.8061 024.4954 12.62267670171754

Source of the keplerian elements: AFSPC

N2YO: 258